Location: Unspecified
(50.7693°N, 0.0000°E)
Time: 00:38:44
(UTC+00:00)

Transit 4A - Pass Details

Date: 30 June 2019
Orbit: 863 x 981 km, 66.8° (Epoch: 18 August)

Event Time Altitude Azimuth Distance (km) Brightness Sun altitude
Rises 12:07:16 0° 314° (NW) 3,695 10.8 62.4°
Reaches altitude 10° 12:10:27 10° 328° (NNW) 2,744 10.2 62.4°
Maximum altitude 12:15:31 24° 21° (NNE) 1,922 9.6 62.3°
Drops below altitude 10° 12:20:32 10° 73° (ENE) 2,712 10.3 62.2°
Sets 12:23:38 0° 87° (E) 3,641 10.9 62.1°
